TimePDT,TemperatureF,Dew PointF,Humidity,Sea Level PressureIn,VisibilityMPH,Wind Direction,Wind SpeedMPH,Gust SpeedMPH,PrecipitationIn,Events,Conditions,WindDirDegrees,DateUTC
12:53 AM,52.0,41.0,66,30.01,10.0,NNW,4.6,-,N/A,,Clear,330,2013-06-15 07:53:00
1:53 AM,46.0,39.0,76,30.01,10.0,Calm,Calm,-,N/A,,Clear,0,2013-06-15 08:53:00
2:53 AM,46.0,39.0,76,30.00,10.0,Calm,Calm,-,N/A,,Clear,0,2013-06-15 09:53:00
3:53 AM,46.0,39.0,76,30.01,10.0,Calm,Calm,-,N/A,,Clear,0,2013-06-15 10:53:00
4:53 AM,44.1,39.0,82,30.01,10.0,ENE,3.5,-,N/A,,Clear,70,2013-06-15 11:53:00
5:53 AM,44.1,39.0,82,30.02,10.0,Calm,Calm,-,N/A,,Clear,0,2013-06-15 12:53:00
6:53 AM,51.1,42.1,71,30.01,10.0,Calm,Calm,-,N/A,,Clear,0,2013-06-15 13:53:00
7:53 AM,57.0,44.1,62,30.00,10.0,Calm,Calm,-,N/A,,Clear,0,2013-06-15 14:53:00
8:53 AM,61.0,44.1,54,30.00,10.0,Calm,Calm,-,N/A,,Clear,0,2013-06-15 15:53:00
9:53 AM,66.9,44.1,44,30.00,10.0,Calm,Calm,-,N/A,,Clear,0,2013-06-15 16:53:00
10:53 AM,72.0,44.1,37,29.98,10.0,Calm,Calm,-,N/A,,Clear,0,2013-06-15 17:53:00
11:53 AM,77.0,42.1,29,29.97,10.0,ESE,5.8,-,N/A,,Clear,110,2013-06-15 18:53:00
12:53 PM,80.1,37.9,22,29.96,10.0,SSE,6.9,-,N/A,,Clear,160,2013-06-15 19:53:00
1:53 PM,81.0,36.0,20,29.94,10.0,Calm,Calm,-,N/A,,Clear,0,2013-06-15 20:53:00
2:53 PM,82.9,36.0,19,29.93,10.0,Variable,5.8,-,N/A,,Clear,0,2013-06-15 21:53:00
3:53 PM,80.1,37.0,21,29.92,10.0,Variable,3.5,-,N/A,,Clear,0,2013-06-15 22:53:00
4:53 PM,81.0,39.0,22,29.91,10.0,East,5.8,-,N/A,,Clear,90,2013-06-15 23:53:00
5:53 PM,80.1,42.1,26,29.91,10.0,East,4.6,-,N/A,,Clear,90,2013-06-16 00:53:00
6:53 PM,78.1,43.0,29,29.91,10.0,East,4.6,-,N/A,,Clear,100,2013-06-16 01:53:00
7:53 PM,73.0,48.0,41,29.91,10.0,ENE,3.5,-,N/A,,Clear,70,2013-06-16 02:53:00
8:53 PM,68.0,48.0,49,29.91,10.0,NNW,3.5,-,N/A,,Clear,330,2013-06-16 03:53:00
9:53 PM,63.0,46.9,56,29.94,10.0,Calm,Calm,-,N/A,,Clear,0,2013-06-16 04:53:00
10:53 PM,59.0,46.9,64,29.95,10.0,Calm,Calm,-,N/A,,Clear,0,2013-06-16 05:53:00
11:53 PM,60.1,45.0,57,29.96,10.0,Calm,Calm,-,N/A,,Clear,0,2013-06-16 06:53:00